Location: Moscow
(55.7500°N, 37.5830°E)
Time: 17:39:09
(UTC+03:00)

Kosmos-337 - Visible Passes

Search period start: 03 July 2022 00:00
Search period end: 13 July 2022 00:00
Orbit: 1467 x 1552 km, 74.0° (Epoch: 02 July)

Date Brightness Start Highest point End Pass type
(mag) Time Alt. Az. Time Alt. Az. Time Alt. Az.
03 Jul ? 00:17:01 10° NNW 00:26:08 59° NE 00:35:07 10° SE visible
03 Jul ? 02:16:00 10° NNW 02:24:47 52° WSW 02:33:27 10° S visible
03 Jul ? 23:31:01 10° NNW 23:39:48 46° NE 23:48:29 10° ESE visible
04 Jul ? 01:30:00 10° NNW 01:39:09 73° WSW 01:48:11 10° SSE visible
04 Jul ? 22:44:55 10° NNW 22:53:16 36° NNE 23:01:33 10° E visible
05 Jul ? 00:44:03 10° NNW 00:53:20 83° ENE 01:02:27 10° SSE visible
05 Jul ? 02:43:16 10° NW 02:51:06 34° W 02:58:52 10° SSW visible
05 Jul ? 21:58:40 10° NW 22:06:33 30° NNE 22:14:23 10° E visible
05 Jul ? 23:58:07 10° NNW 00:07:16 63° NE 00:16:18 10° SE visible
06 Jul ? 01:57:07 10° NNW 02:05:46 48° WSW 02:14:17 10° S visible
06 Jul ? 23:12:08 10° NNW 23:21:00 48° NE 23:29:45 10° ESE visible
07 Jul ? 01:11:06 10° NNW 01:20:12 68° WSW 01:29:09 10° S visible
07 Jul ? 22:26:03 10° NNW 22:34:31 38° NE 22:42:52 10° ESE visible
08 Jul ? 00:25:09 10° NNW 00:34:25 89° ENE 00:43:31 10° SSE visible
08 Jul ? 02:24:27 10° NW 02:32:02 31° W 02:39:32 10° SSW visible
08 Jul ? 23:39:12 10° NNW 23:48:25 67° NE 23:57:27 10° SE visible
09 Jul ? 01:38:15 10° NNW 01:46:44 45° W 01:54:39 12° SSW visible
09 Jul ? 22:53:14 10° NNW 23:02:11 51° NE 23:11:00 10° ESE visible
10 Jul ? 00:52:12 10° NNW 01:01:13 63° WSW 01:09:18 13° S visible
10 Jul ? 02:52:20 10° NW 02:57:58 18° W 03:03:34 10° WSW visible
10 Jul ? 22:07:12 10° NNW 22:15:45 40° NE 22:24:11 10° ESE visible
11 Jul ? 00:06:14 10° NNW 00:15:30 86° WSW 00:24:00 12° SSE visible
11 Jul ? 02:05:39 10° NW 02:12:56 28° W 02:20:09 10° SW visible
11 Jul ? 23:20:18 10° NNW 23:29:32 72° ENE 23:38:36 10° SE visible
12 Jul ? 01:19:23 10° NNW 01:27:42 41° W 01:34:58 13° SSW visible
12 Jul ? 22:34:21 10° NNW 22:43:21 54° NE 22:52:13 10° SE visible
